International Falls, MN

4:09 AM CDT on April 30, 2017 (GMT -0500)
Falls International

Weather History for KINL - November, 2013

Change the Weather History Date:

Thursday, November 7, 2013

  Actual Average Record
Temperature  
Mean Temperature 26 °F 31 °F  
Max Temperature 34 °F 39 °F 64 °F (2016)
Min Temperature 18 °F 23 °F -9 °F (2003)
Degree Days  
Heating Degree Days 39 34  
Month to date heating degree days 223 228  
Since 1 July heating degree days 1391 1505  
Cooling Degree Days 0 0  
Month to date cooling degree days 0 0  
Year to date cooling degree days 224 192  
Moisture  
Dew Point 23 °F    
Average Humidity 73    
Maximum Humidity 85    
Minimum Humidity 61    
Precipitation  
Precipitation T in 0.05 in 0.88 in (1947)
Month to date precipitation 0.15 0.37  
Year to date precipitation 29.34 22.40  
Snow  
Snow T in 0.40 in 4.20 in (1957)
Month to date snowfall T 2.1  
Since 1 July snowfall 1.6 4.4  
Since 1 September snowfall 1.6 4.4  
Snow Depth 0.00 in    
Sea Level Pressure  
Sea Level Pressure 30.15 in    
Wind  
Wind Speed 6 mph (West)    
Max Wind Speed 12 mph    
Max Gust Speed 16 mph    
Visibility 10 miles    
Events      
T = Trace of Precipitation, MM = Missing Value Source: NWS Daily Summary

Daily Weather History Graph

Daily Weather History Graph

Search for Another Location

Airport or City:

Trip Planner

Search our weather history database for the weather conditions in past years. The results will help you decide how hot, cold, wet, or windy it might be!

Date:

Astronomy

Nov. 07, 2013 Rise Set
Actual Time 7:09 AM CST 4:44 PM CST
Civil Twilight 6:36 AM CST 5:17 PM CST
Nautical Twilight 5:58 AM CST 5:55 PM CST
Astronomical Twilight 5:21 AM CST 6:31 PM CST
Moon 11:23 AM CST (11/7) 8:53 PM CST (11/7)
Length of Visible Light 10h 41m
Length of Day
9h 34m
Waxing Crescent, 23% of the Moon is Illuminated
Nov 7
Waxing Crescent
Nov 9
First Quarter
Nov 17
Full
Nov 25
Last Quarter
Dec 2
New

Hourly Weather History & Observations

Time (CST) Temp. Windchill Dew Point Humidity Pressure Visibility Wind Dir Wind Speed Gust Speed Precip Events Conditions
12:55 AM 30.0 °F 24.1 °F 23.0 °F 75% 30.14 in 10.0 mi West 5.8 mph - N/A   Overcast
1:27 AM 28.4 °F 22.2 °F 23.0 °F 80% 30.08 in 10.0 mi WNW 5.8 mph - N/A   Overcast
1:55 AM 28.9 °F 21.9 °F 24.1 °F 82% 30.14 in 10.0 mi WNW 6.9 mph - N/A   Overcast
2:55 AM 28.9 °F 22.8 °F 24.1 °F 82% 30.14 in 10.0 mi West 5.8 mph - N/A   Overcast
3:55 AM 28.9 °F 21.9 °F 24.1 °F 82% 30.14 in 10.0 mi West 6.9 mph - N/A   Overcast
4:55 AM 28.9 °F 22.8 °F 24.1 °F 82% 30.15 in 10.0 mi West 5.8 mph - N/A   Overcast
5:55 AM 28.0 °F 21.7 °F 24.1 °F 85% 30.15 in 10.0 mi West 5.8 mph - N/A   Overcast
6:55 AM 28.0 °F 21.7 °F 23.0 °F 81% 30.16 in 10.0 mi West 5.8 mph - N/A   Overcast
7:55 AM 28.9 °F 22.8 °F 24.1 °F 82% 30.16 in 10.0 mi West 5.8 mph - N/A   Overcast
8:55 AM 30.0 °F 24.1 °F 24.1 °F 79% 30.17 in 10.0 mi West 5.8 mph - N/A   Overcast
9:55 AM 32.0 °F 25.6 °F 25.0 °F 75% 30.17 in 10.0 mi West 6.9 mph - 0.00 in   Overcast
10:14 AM 33.8 °F 27.0 °F 24.8 °F 70% 30.12 in 10.0 mi WNW 8.1 mph - N/A   Overcast
10:50 AM 33.8 °F 27.0 °F 24.8 °F 70% 30.13 in 10.0 mi West 8.1 mph - N/A   Overcast
10:55 AM 33.1 °F 26.1 °F 25.0 °F 72% 30.18 in 10.0 mi WNW 8.1 mph - N/A   Overcast
11:36 AM 33.8 °F 27.7 °F 24.8 °F 70% 30.13 in 10.0 mi WNW 6.9 mph - N/A   Overcast
11:55 AM 34.0 °F 28.0 °F 25.0 °F 70% 30.18 in 10.0 mi West 6.9 mph - N/A   Overcast
12:20 PM 33.8 °F 27.0 °F 24.8 °F 70% 30.12 in 10.0 mi West 8.1 mph - N/A   Overcast
12:55 PM 34.0 °F 26.6 °F 24.1 °F 67% 30.17 in 10.0 mi West 9.2 mph - N/A   Overcast
1:55 PM 34.0 °F 26.0 °F 23.0 °F 64% 30.16 in 10.0 mi West 10.4 mph - N/A   Overcast
2:55 PM 33.1 °F 25.5 °F 21.9 °F 64% 30.16 in 10.0 mi West 9.2 mph - N/A   Overcast
3:55 PM 32.0 °F 25.6 °F 21.9 °F 66% 30.16 in 10.0 mi West 6.9 mph - N/A   Overcast
4:55 PM 32.0 °F 27.5 °F 21.0 °F 64% 30.17 in 10.0 mi West 4.6 mph - N/A   Overcast
5:55 PM 30.9 °F 27.5 °F 21.9 °F 69% 30.17 in 10.0 mi West 3.5 mph - N/A   Overcast
6:55 PM 30.0 °F - 23.0 °F 75% 30.16 in 10.0 mi Calm Calm - N/A   Mostly Cloudy
7:55 PM 27.0 °F 21.6 °F 21.9 °F 81% 30.17 in 10.0 mi SW 4.6 mph - N/A   Scattered Clouds
8:55 PM 25.0 °F 19.3 °F 19.0 °F 78% 30.17 in 10.0 mi SW 4.6 mph - N/A   Scattered Clouds
9:55 PM 23.0 °F - 18.0 °F 81% 30.16 in 10.0 mi Calm Calm - N/A   Clear
10:55 PM 19.9 °F - 16.0 °F 85% 30.15 in 10.0 mi Calm Calm - N/A   Clear
11:55 PM 18.0 °F 12.7 °F 15.1 °F 88% 30.15 in 10.0 mi SSW 3.5 mph - N/A   Clear